| time (UTC) | temp F | wind direction | speed knots | gust knots | rain 1hr in | rain 24hr in | rain mn in | humidity % | barometer mb |
| 20260507135832 | 56 | 114 | 2.6 | 6.1 | 0.00 | 0.00 | 0.00 | 72 | 1023.3 |
| 20260507135328 | 56 | 106 | 2.6 | 2.6 | 0.00 | 0.00 | 0.00 | 72 | 1023.4 |
| 20260507134826 | 55 | 109 | 3.5 | 6.1 | 0.00 | 0.00 | 0.00 | 72 | 1023.4 |
| 20260507134322 | 55 | 134 | 4.3 | 5.2 | 0.00 | 0.00 | 0.00 | 72 | 1023.4 |
| 20260507133817 | 55 | 78 | 1.7 | 2.6 | 0.00 | 0.00 | 0.00 | 72 | 1023.5 |
| 20260507133313 | 57 | 154 | 2.6 | 2.6 | 0.00 | 0.00 | 0.00 | 72 | 1023.4 |
| 20260507132812 | 54 | 187 | 1.7 | 2.6 | 0.00 | 0.00 | 0.00 | 72 | 1023.6 |
| 20260507132308 | 53 | 159 | 1.7 | 5.2 | 0.00 | 0.00 | 0.00 | 72 | 1023.5 |
| 20260507131805 | 53 | 103 | 2.6 | 2.6 | 0.00 | 0.00 | 0.00 | 72 | 1023.4 |
| 20260507131302 | 51 | 6 | 0.0 | 0.9 | 0.00 | 0.00 | 0.00 | 72 | 1023.1 |
| 20260507130759 | 51 | 6 | 0.0 | 0.9 | 0.00 | 0.00 | 0.00 | 72 | 1023.2 |
| 20260507130256 | 51 | 6 | 0.0 | 0.9 | 0.00 | 0.00 | 0.00 | 72 | 1023.2 |
| 20260507125755 | 51 | 6 | 0.0 | 0.9 | 0.00 | 0.00 | 0.00 | 72 | 1023.2 |
| 20260507125252 | 51 | 6 | 0.0 | 0.9 | 0.00 | 0.00 | 0.00 | 72 | 1023.4 |
| 20260507124749 | 47 | 180 | 0.0 | 0.9 | 0.00 | 0.00 | 0.00 | 71 | 1023.3 |
| 20260507124245 | 47 | 180 | 0.0 | 0.9 | 0.00 | 0.00 | 0.00 | 71 | 1023.0 |
| 20260507123744 | 47 | 180 | 0.0 | 0.9 | 0.00 | 0.00 | 0.00 | 71 | 1023.1 |
| 20260507123241 | 47 | 180 | 0.0 | 0.9 | 0.00 | 0.00 | 0.00 | 71 | 1023.0 |
| 20260507122736 | 47 | 190 | 1.7 | 1.7 | 0.00 | 0.00 | 0.00 | 71 | 1023.4 |
| 20260507122232 | 47 | 0 | 0.0 | 0.0 | 0.00 | 0.00 | 0.00 | 71 | 1023.3 |
| 20260507121728 | 45 | 14 | 0.0 | 1.7 | 0.00 | 0.00 | 0.00 | 71 | 1023.2 |
| 20260507121224 | 44 | 90 | 0.0 | 0.0 | 0.00 | 0.00 | 0.00 | 71 | 1022.8 |
| 20260507120720 | 0 | 0.0 | 0.0 | 0.00 | 0.00 | 0.00 | 1022.8 | ||
| 20260507120218 | 0 | 0.0 | 0.0 | 0.00 | 0.00 | 0.00 | 1022.8 | ||
| 20260507115714 | 0 | 0.0 | 0.0 | 0.00 | 0.00 | 0.00 | 1022.7 | ||
| 20260507115210 | 0 | 0.0 | 0.0 | 0.00 | 0.00 | 0.00 | 1022.8 | ||
| 20260507114705 | 0 | 0.0 | 0.0 | 0.00 | 0.00 | 0.00 | 1022.6 | ||
| 20260507114203 | 0 | 0.0 | 0.0 | 0.00 | 0.00 | 0.00 | 1022.4 | ||
| 20260507113700 | 0 | 0.0 | 0.0 | 0.00 | 0.00 | 0.00 | 1022.5 | ||
| 20260507113157 | 43 | 20 | 0.0 | 2.6 | 0.00 | 0.00 | 0.00 | 71 | 1022.7 |
| 20260507112655 | 43 | 20 | 0.0 | 2.6 | 0.00 | 0.00 | 0.00 | 71 | 1022.8 |
| 20260507112151 | 43 | 20 | 0.0 | 2.6 | 0.00 | 0.00 | 0.00 | 71 | 1022.5 |
| 20260507111649 | 43 | 20 | 0.0 | 2.6 | 0.00 | 0.00 | 0.00 | 71 | 1022.5 |
| 20260507111145 | 43 | 20 | 0.0 | 2.6 | 0.00 | 0.00 | 0.00 | 71 | 1022.7 |
| 20260507110641 | 43 | 20 | 0.0 | 2.6 | 0.00 | 0.00 | 0.00 | 71 | 1022.8 |
| 20260507110138 | 43 | 20 | 0.0 | 2.6 | 0.00 | 0.00 | 0.00 | 71 | 1022.4 |
| 20260507105635 | 43 | 20 | 0.0 | 2.6 | 0.00 | 0.00 | 0.00 | 71 | 1022.6 |
| 20260507105131 | 43 | 20 | 0.0 | 2.6 | 0.00 | 0.00 | 0.00 | 71 | 1022.6 |
| 20260507104629 | 43 | 20 | 0.0 | 2.6 | 0.00 | 0.00 | 0.00 | 71 | 1022.5 |
| 20260507104125 | 43 | 20 | 0.0 | 2.6 | 0.00 | 0.00 | 0.00 | 71 | 1022.6 |
| 20260507103621 | 43 | 20 | 0.0 | 2.6 | 0.00 | 0.00 | 0.00 | 71 | 1022.5 |
| 20260507103118 | 43 | 7 | 0.0 | 1.7 | 0.00 | 0.00 | 0.00 | 71 | 1022.5 |
| 20260507102614 | 43 | 23 | 3.5 | 3.5 | 0.00 | 0.00 | 0.00 | 71 | 1022.5 |
| 20260507102111 | 43 | 14 | 0.0 | 1.7 | 0.00 | 0.00 | 0.00 | 71 | 1022.4 |
| 20260507101607 | 43 | 18 | 0.0 | 1.7 | 0.00 | 0.00 | 0.00 | 71 | 1022.6 |
| 20260507101103 | 43 | 18 | 0.0 | 1.7 | 0.00 | 0.00 | 0.00 | 71 | 1022.5 |
| 20260507100600 | 43 | 45 | 1.7 | 1.7 | 0.00 | 0.00 | 0.00 | 71 | 1022.3 |
| 20260507100058 | 45 | 0 | 0.9 | 1.7 | 0.00 | 0.00 | 0.00 | 71 | 1022.2 |
| 20260507095556 | 45 | 68 | 2.6 | 3.5 | 0.00 | 0.00 | 0.00 | 71 | 1022.3 |
| 20260507095052 | 45 | 23 | 2.6 | 2.6 | 0.00 | 0.00 | 0.00 | 71 | 1021.8 |
| 20260507094548 | 45 | 23 | 2.6 | 2.6 | 0.00 | 0.00 | 0.00 | 71 | 1021.8 |
| 20260507094046 | 45 | 19 | 2.6 | 2.6 | 0.00 | 0.00 | 0.00 | 71 | 1022.0 |
| 20260507093543 | 45 | 50 | 3.5 | 4.3 | 0.00 | 0.00 | 0.00 | 71 | 1022.0 |
| 20260507093042 | 46 | 32 | 2.6 | 3.5 | 0.00 | 0.00 | 0.00 | 71 | 1021.9 |
| 20260507092537 | 45 | 29 | 1.7 | 1.7 | 0.00 | 0.00 | 0.00 | 71 | 1021.9 |
| 20260507092034 | 46 | 68 | 1.7 | 2.6 | 0.00 | 0.00 | 0.00 | 71 | 1021.9 |
| 20260507091532 | 45 | 60 | 0.9 | 2.6 | 0.00 | 0.00 | 0.00 | 71 | 1022.0 |
| 20260507091028 | 46 | 26 | 0.0 | 0.9 | 0.00 | 0.00 | 0.00 | 71 | 1022.2 |
| 20260507090523 | 46 | 60 | 0.0 | 0.9 | 0.00 | 0.00 | 0.00 | 71 | 1022.3 |
| 20260507090020 | 46 | 324 | 0.9 | 1.7 | 0.00 | 0.00 | 0.00 | 71 | 1022.2 |
| 20260507085517 | 46 | 0 | 1.7 | 1.7 | 0.00 | 0.00 | 0.00 | 71 | 1022.2 |
| 20260507085014 | 46 | 53 | 1.7 | 1.7 | 0.00 | 0.00 | 0.00 | 71 | 1022.3 |
| 20260507084511 | 46 | 14 | 0.0 | 1.7 | 0.00 | 0.00 | 0.00 | 71 | 1022.5 |
| 20260507084008 | 46 | 23 | 0.0 | 1.7 | 0.00 | 0.00 | 0.00 | 71 | 1021.9 |
| 20260507083504 | 46 | 341 | 2.6 | 2.6 | 0.00 | 0.00 | 0.00 | 71 | 1022.2 |
| 20260507083001 | 46 | 30 | 1.7 | 2.6 | 0.00 | 0.00 | 0.00 | 71 | 1021.9 |
| 20260507082457 | 46 | 30 | 1.7 | 2.6 | 0.00 | 0.00 | 0.00 | 71 | 1022.3 |
| 20260507081953 | 46 | 30 | 2.6 | 2.6 | 0.00 | 0.00 | 0.00 | 71 | 1022.2 |
| 20260507081449 | 46 | 30 | 2.6 | 2.6 | 0.00 | 0.00 | 0.00 | 71 | 1022.3 |
| 20260507080947 | 47 | 35 | 0.9 | 2.6 | 0.00 | 0.00 | 0.00 | 71 | 1022.2 |
| 20260507080443 | 47 | 35 | 0.9 | 2.6 | 0.00 | 0.00 | 0.00 | 71 | 1022.2 |
| 20260507075938 | 47 | 35 | 0.9 | 2.6 | 0.00 | 0.00 | 0.00 | 71 | 1022.0 |
| 20260507075435 | 47 | 35 | 0.9 | 2.6 | 0.00 | 0.00 | 0.00 | 71 | 1022.3 |
| 20260507074931 | 47 | 40 | 2.6 | 2.6 | 0.00 | 0.00 | 0.00 | 71 | 1022.4 |
| 20260507074428 | 47 | 26 | 2.6 | 3.5 | 0.00 | 0.00 | 0.00 | 71 | 1022.2 |
| 20260507073926 | 46 | 29 | 0.0 | 3.5 | 0.00 | 0.00 | 0.00 | 71 | 1022.0 |
| 20260507073422 | 46 | 29 | 0.0 | 3.5 | 0.00 | 0.00 | 0.00 | 71 | 1022.2 |
| 20260507072919 | 47 | 21 | 1.7 | 1.7 | 0.00 | 0.00 | 0.00 | 71 | 1022.4 |
| 20260507072416 | 47 | 21 | 1.7 | 1.7 | 0.00 | 0.00 | 0.00 | 71 | 1022.0 |
| 20260507071914 | 48 | 71 | 1.7 | 2.6 | 0.00 | 0.00 | 0.00 | 71 | 1021.8 |
| 20260507071411 | 48 | 71 | 1.7 | 2.6 | 0.00 | 0.00 | 0.00 | 71 | 1021.8 |
| 20260507070907 | 48 | 71 | 1.7 | 2.6 | 0.00 | 0.00 | 0.00 | 71 | 1022.3 |
| 20260507070405 | 48 | 71 | 1.7 | 2.6 | 0.00 | 0.00 | 0.00 | 71 | 1022.2 |
| 20260507065901 | 47 | 341 | 4.3 | 6.1 | 0.00 | 0.00 | 0.00 | 71 | 1022.0 |
| 20260507065358 | 48 | 40 | 4.3 | 5.2 | 0.00 | 0.00 | 0.00 | 71 | 1022.3 |
| 20260507064855 | 48 | 54 | 5.2 | 5.2 | 0.00 | 0.00 | 0.00 | 71 | 1022.3 |
| 20260507064353 | 48 | 54 | 5.2 | 5.2 | 0.00 | 0.00 | 0.00 | 71 | 1022.3 |
| 20260507063851 | 48 | 34 | 2.6 | 3.5 | 0.00 | 0.00 | 0.00 | 71 | 1022.4 |
| 20260507063348 | 48 | 47 | 2.6 | 3.5 | 0.00 | 0.00 | 0.00 | 71 | 1021.9 |
| 20260507062845 | 48 | 63 | 2.6 | 2.6 | 0.00 | 0.00 | 0.00 | 71 | 1022.3 |
| 20260507062341 | 48 | 60 | 2.6 | 3.5 | 0.00 | 0.00 | 0.00 | 71 | 1022.4 |
| 20260507061839 | 48 | 9 | 2.6 | 3.5 | 0.00 | 0.00 | 0.00 | 71 | 1022.3 |
| 20260507061337 | 48 | 61 | 2.6 | 4.3 | 0.00 | 0.00 | 0.00 | 71 | 1022.2 |
| 20260507060835 | 48 | 13 | 2.6 | 4.3 | 0.00 | 0.00 | 0.00 | 71 | 1022.0 |
| 20260507060332 | 48 | 337 | 3.5 | 4.3 | 0.00 | 0.00 | 0.00 | 71 | 1022.2 |
| 20260507055828 | 48 | 37 | 6.1 | 6.1 | 0.00 | 0.00 | 0.00 | 71 | 1021.9 |
| 20260507055323 | 48 | 28 | 1.7 | 2.6 | 0.00 | 0.00 | 0.00 | 71 | 1022.0 |
| 20260507054820 | 48 | 28 | 1.7 | 2.6 | 0.00 | 0.00 | 0.00 | 71 | 1021.7 |
| 20260507054316 | 48 | 76 | 2.6 | 3.5 | 0.00 | 0.00 | 0.00 | 71 | 1021.7 |
| 20260507053814 | 48 | 29 | 0.0 | 1.7 | 0.00 | 0.00 | 0.00 | 71 | 1021.9 |
| 20260507053312 | 48 | 29 | 0.9 | 0.9 | 0.00 | 0.00 | 0.00 | 71 | 1022.0 |
| 20260507052811 | 48 | 3 | 2.6 | 2.6 | 0.00 | 0.00 | 0.00 | 71 | 1021.7 |
| 20260507052307 | 48 | 0 | 0.9 | 0.9 | 0.00 | 0.00 | 0.00 | 71 | 1021.8 |
| 20260507051805 | 49 | 7 | 0.0 | 0.0 | 0.00 | 0.00 | 0.00 | 71 | 1021.8 |
| 20260507051302 | 49 | 7 | 0.0 | 0.0 | 0.00 | 0.00 | 0.00 | 71 | 1021.5 |
| 20260507050758 | 49 | 7 | 0.0 | 0.0 | 0.00 | 0.00 | 0.00 | 71 | 1021.6 |
| 20260507050254 | 49 | 337 | 0.0 | 0.0 | 0.00 | 0.00 | 0.00 | 71 | 1021.7 |
| 20260507045751 | 50 | 341 | 1.7 | 1.7 | 0.00 | 0.01 | 0.01 | 72 | 1021.7 |
| 20260507045247 | 50 | 0 | 1.7 | 1.7 | 0.00 | 0.01 | 0.01 | 72 | 1021.6 |
| 20260507044746 | 50 | 0 | 1.7 | 1.7 | 0.00 | 0.01 | 0.01 | 72 | 1021.6 |
| 20260507044242 | 50 | 0 | 1.7 | 1.7 | 0.00 | 0.01 | 0.01 | 72 | 1021.4 |
| 20260507043738 | 50 | 0 | 1.7 | 1.7 | 0.00 | 0.01 | 0.01 | 72 | 1021.5 |
| 20260507043235 | 50 | 8 | 1.7 | 1.7 | 0.00 | 0.01 | 0.01 | 72 | 1021.3 |
| 20260507042731 | 50 | 8 | 1.7 | 1.7 | 0.00 | 0.01 | 0.01 | 72 | 1021.4 |
| 20260507042226 | 50 | 8 | 1.7 | 1.7 | 0.00 | 0.01 | 0.01 | 72 | 1021.5 |
| 20260507041724 | 50 | 8 | 1.7 | 1.7 | 0.00 | 0.01 | 0.01 | 72 | 1021.4 |
| 20260507041220 | 50 | 8 | 1.7 | 1.7 | 0.00 | 0.01 | 0.01 | 72 | 1021.4 |
| 20260507040717 | 50 | 8 | 1.7 | 1.7 | 0.00 | 0.01 | 0.01 | 72 | 1021.5 |
| 20260507040213 | 50 | 348 | 0.0 | 1.7 | 0.00 | 0.01 | 0.01 | 72 | 1021.5 |
| 20260507035709 | 50 | 348 | 0.0 | 1.7 | 0.00 | 0.01 | 0.01 | 72 | 1021.3 |
| 20260507035205 | 50 | 356 | 1.7 | 2.6 | 0.00 | 0.01 | 0.01 | 72 | 1021.1 |
| 20260507034702 | 50 | 356 | 1.7 | 2.6 | 0.00 | 0.01 | 0.01 | 72 | 1021.5 |
| 20260507034200 | 50 | 356 | 1.7 | 2.6 | 0.00 | 0.01 | 0.01 | 72 | 1021.4 |
| 20260507033658 | 50 | 356 | 1.7 | 2.6 | 0.00 | 0.01 | 0.01 | 72 | 1021.3 |
| 20260507033155 | 50 | 356 | 1.7 | 2.6 | 0.00 | 0.01 | 0.01 | 72 | 1021.3 |
| 20260507032652 | 50 | 10 | 1.7 | 1.7 | 0.00 | 0.01 | 0.01 | 72 | 1021.3 |
| 20260507032148 | 50 | 10 | 1.7 | 1.7 | 0.00 | 0.01 | 0.01 | 72 | 1021.3 |
| 20260507031645 | 50 | 348 | 0.0 | 1.7 | 0.00 | 0.01 | 0.01 | 72 | 1021.3 |
| 20260507031141 | 50 | 348 | 0.0 | 1.7 | 0.00 | 0.01 | 0.01 | 72 | 1021.5 |
| 20260507030638 | 50 | 353 | 0.9 | 1.7 | 0.00 | 0.01 | 0.01 | 72 | 1021.6 |
| 20260507030136 | 51 | 331 | 0.0 | 1.7 | 0.00 | 0.01 | 0.01 | 72 | 1021.4 |
| 20260507025633 | 51 | 306 | 0.0 | 0.9 | 0.00 | 0.01 | 0.01 | 72 | 1021.4 |
| 20260507025130 | 51 | 297 | 0.0 | 0.9 | 0.00 | 0.01 | 0.01 | 72 | 1021.5 |
| 20260507024628 | 53 | 287 | 1.7 | 1.7 | 0.00 | 0.01 | 0.01 | 72 | 1021.1 |
| 20260507024125 | 53 | 287 | 1.7 | 1.7 | 0.00 | 0.01 | 0.01 | 72 | 1021.5 |
| 20260507023620 | 53 | 287 | 1.7 | 1.7 | 0.00 | 0.01 | 0.01 | 72 | 1021.4 |
| 20260507023118 | 53 | 287 | 1.7 | 1.7 | 0.00 | 0.01 | 0.01 | 72 | 1021.4 |
| 20260507022615 | 53 | 287 | 1.7 | 1.7 | 0.00 | 0.01 | 0.01 | 72 | 1021.2 |
| 20260507022110 | 53 | 287 | 1.7 | 1.7 | 0.00 | 0.01 | 0.01 | 72 | 1021.3 |
| 20260507021607 | 53 | 0 | 0.9 | 1.7 | 0.00 | 0.01 | 0.01 | 72 | 1021.3 |
| 20260507021103 | 53 | 0 | 0.9 | 1.7 | 0.00 | 0.01 | 0.01 | 72 | 1021.0 |
| 20260507020602 | 53 | 0 | 0.9 | 1.7 | 0.00 | 0.01 | 0.01 | 72 | 1021.0 |
| 20260507020057 | 54 | 346 | 0.9 | 0.9 | 0.00 | 0.01 | 0.01 | 72 | 1020.8 |
| 20260507015556 | 54 | 346 | 0.9 | 0.9 | 0.00 | 0.01 | 0.01 | 72 | 1020.3 |
| 20260507015053 | 54 | 346 | 0.9 | 0.9 | 0.00 | 0.01 | 0.01 | 72 | 1020.7 |
| 20260507014549 | 55 | 239 | 1.7 | 1.7 | 0.00 | 0.01 | 0.01 | 72 | 1020.7 |
| 20260507014045 | 55 | 239 | 1.7 | 1.7 | 0.00 | 0.01 | 0.01 | 72 | 1021.0 |
| 20260507013542 | 0 | 0.0 | 0.0 | 0.00 | 0.01 | 0.01 | 1021.0 | ||
| 20260507013039 | 0 | 0.0 | 0.0 | 0.00 | 0.01 | 0.01 | 1021.0 | ||
| 20260507012536 | 0 | 0.0 | 0.0 | 0.00 | 0.01 | 0.01 | 1021.0 | ||
| 20260507012032 | 0 | 0.0 | 0.0 | 0.00 | 0.01 | 0.01 | 1020.8 | ||
| 20260507011530 | 0 | 0.0 | 0.0 | 0.00 | 0.01 | 0.01 | 1020.8 | ||
| 20260507011026 | 0 | 0.0 | 0.0 | 0.00 | 0.01 | 0.01 | 1020.5 | ||
| 20260507010520 | 0 | 0.0 | 0.0 | 0.00 | 0.01 | 0.01 | 1020.5 | ||
| 20260507010017 | 0 | 0.0 | 0.0 | 0.00 | 0.01 | 0.01 | 1020.4 | ||
| 20260507005515 | 0 | 0.0 | 0.0 | 0.00 | 0.01 | 0.01 | 1020.2 | ||
| 20260507005011 | 0 | 0.0 | 0.0 | 0.00 | 0.01 | 0.01 | 1020.3 | ||
| 20260507004508 | 0 | 0.0 | 0.0 | 0.00 | 0.01 | 0.01 | 1020.5 | ||
| 20260507004006 | 58 | 25 | 6.1 | 7.0 | 0.00 | 0.01 | 0.01 | 72 | 1020.4 |
| 20260507003501 | 58 | 25 | 6.1 | 7.0 | 0.00 | 0.01 | 0.01 | 72 | 1020.6 |
| 20260507002955 | 58 | 25 | 6.1 | 7.0 | 0.00 | 0.01 | 0.01 | 72 | 1020.6 |
| 20260507002453 | 58 | 25 | 6.1 | 7.0 | 0.00 | 0.01 | 0.01 | 72 | 1021.1 |
| 20260507001949 | 58 | 25 | 6.1 | 7.0 | 0.00 | 0.01 | 0.01 | 72 | 1020.7 |
| 20260507001446 | 58 | 25 | 6.1 | 7.0 | 0.00 | 0.01 | 0.01 | 72 | 1020.6 |
| 20260507000944 | 58 | 25 | 6.1 | 7.0 | 0.00 | 0.01 | 0.01 | 72 | 1020.6 |
| 20260507000439 | 58 | 25 | 6.1 | 7.0 | 0.00 | 0.01 | 0.01 | 72 | 1020.2 |
| 20260506235934 | 58 | 25 | 6.1 | 7.0 | 0.00 | 0.01 | 0.01 | 72 | 1020.1 |
| 20260506235432 | 58 | 25 | 6.1 | 7.0 | 0.00 | 0.01 | 0.01 | 72 | 1019.8 |
| 20260506234927 | 58 | 25 | 6.1 | 7.0 | 0.00 | 0.01 | 0.01 | 72 | 1019.8 |
| 20260506234426 | 58 | 25 | 6.1 | 7.0 | 0.00 | 0.01 | 0.01 | 72 | 1019.6 |
| 20260506233923 | 59 | 11 | 2.6 | 3.5 | 0.00 | 0.01 | 0.01 | 72 | 1019.7 |
| 20260506233419 | 59 | 11 | 2.6 | 3.5 | 0.00 | 0.01 | 0.01 | 72 | 1019.7 |
| 20260506232916 | 59 | 11 | 2.6 | 3.5 | 0.00 | 0.01 | 0.01 | 72 | 1019.4 |
| 20260506232412 | 58 | 46 | 3.5 | 5.2 | 0.00 | 0.01 | 0.01 | 72 | 1019.7 |
| 20260506231908 | 58 | 23 | 3.5 | 6.1 | 0.00 | 0.01 | 0.01 | 72 | 1019.9 |
| 20260506231406 | 59 | 12 | 4.3 | 4.3 | 0.00 | 0.01 | 0.01 | 73 | 1019.6 |
| 20260506230903 | 58 | 5 | 7.0 | 8.7 | 0.00 | 0.01 | 0.01 | 72 | 1019.6 |
| 20260506230400 | 58 | 25 | 7.0 | 8.7 | 0.00 | 0.01 | 0.01 | 72 | 1019.4 |
| 20260506225856 | 59 | 23 | 7.8 | 7.8 | 0.00 | 0.01 | 0.01 | 72 | 1019.5 |
| 20260506225353 | 59 | 61 | 7.0 | 7.8 | 0.00 | 0.01 | 0.01 | 72 | 1019.3 |
| 20260506224850 | 59 | 12 | 0.9 | 10.4 | 0.00 | 0.01 | 0.01 | 73 | 1018.9 |
| 20260506224348 | 59 | 20 | 2.6 | 6.1 | 0.00 | 0.01 | 0.01 | 72 | 1018.8 |
| 20260506223844 | 59 | 345 | 4.3 | 6.1 | 0.00 | 0.01 | 0.01 | 72 | 1019.1 |
| 20260506223339 | 59 | 57 | 1.7 | 7.8 | 0.00 | 0.01 | 0.01 | 73 | 1019.3 |
| 20260506222836 | 59 | 96 | 1.7 | 10.4 | 0.00 | 0.01 | 0.01 | 73 | 1019.1 |
| 20260506222331 | 59 | 7 | 1.7 | 8.7 | 0.00 | 0.01 | 0.01 | 73 | 1019.1 |
| 20260506221830 | 60 | 48 | 4.3 | 4.3 | 0.00 | 0.01 | 0.01 | 73 | 1019.1 |
| 20260506221327 | 59 | 23 | 7.0 | 11.3 | 0.00 | 0.01 | 0.01 | 73 | 1019.1 |
| 20260506220825 | 59 | 67 | 3.5 | 9.6 | 0.00 | 0.01 | 0.01 | 73 | 1019.2 |
| 20260506220320 | 60 | 95 | 0.0 | 1.7 | 0.00 | 0.01 | 0.01 | 73 | 1018.8 |
| 20260506215817 | 60 | 27 | 5.2 | 6.1 | 0.00 | 0.01 | 0.01 | 73 | 1018.7 |
| 20260506215312 | 59 | 327 | 3.5 | 4.3 | 0.00 | 0.01 | 0.01 | 73 | 1019.2 |
| 20260506214808 | 59 | 22 | 2.6 | 10.4 | 0.00 | 0.01 | 0.01 | 73 | 1019.2 |
| 20260506214305 | 60 | 55 | 3.5 | 4.3 | 0.00 | 0.01 | 0.01 | 73 | 1019.5 |
| 20260506213804 | 59 | 25 | 2.6 | 7.8 | 0.00 | 0.01 | 0.01 | 73 | 1019.6 |
| 20260506213300 | 59 | 165 | 0.9 | 3.5 | 0.00 | 0.01 | 0.01 | 73 | 1019.6 |
| 20260506212758 | 59 | 12 | 2.6 | 5.2 | 0.00 | 0.01 | 0.01 | 73 | 1019.4 |
| 20260506212253 | 59 | 26 | 2.6 | 3.5 | 0.00 | 0.01 | 0.01 | 73 | 1019.4 |
| 20260506211749 | 59 | 69 | 6.1 | 6.1 | 0.00 | 0.01 | 0.01 | 73 | 1019.7 |
| 20260506211245 | 59 | 70 | 0.0 | 4.3 | 0.00 | 0.01 | 0.01 | 73 | 1019.7 |
| 20260506210742 | 59 | 347 | 2.6 | 4.3 | 0.00 | 0.01 | 0.01 | 73 | 1019.9 |
| 20260506210239 | 60 | 16 | 1.7 | 7.0 | 0.00 | 0.01 | 0.01 | 73 | 1020.0 |
| 20260506205736 | 59 | 54 | 0.9 | 3.5 | 0.00 | 0.01 | 0.01 | 73 | 1020.2 |
| 20260506205232 | 59 | 346 | 2.6 | 5.2 | 0.00 | 0.01 | 0.01 | 72 | 1020.3 |
| 20260506204729 | 59 | 90 | 4.3 | 9.6 | 0.00 | 0.01 | 0.01 | 73 | 1020.3 |
| 20260506204226 | 59 | 354 | 3.5 | 5.2 | 0.00 | 0.01 | 0.01 | 72 | 1020.2 |
| 20260506203724 | 59 | 37 | 2.6 | 4.3 | 0.00 | 0.01 | 0.01 | 72 | 1020.3 |
| 20260506203215 | 59 | 270 | 4.3 | 5.2 | 0.00 | 0.01 | 0.01 | 73 | 1020.8 |
| 20260506202713 | 59 | 17 | 3.5 | 4.3 | 0.00 | 0.01 | 0.01 | 72 | 1020.7 |
| 20260506202209 | 59 | 324 | 2.6 | 5.2 | 0.00 | 0.01 | 0.01 | 72 | 1020.5 |
| 20260506201706 | 59 | 295 | 6.1 | 6.1 | 0.00 | 0.01 | 0.01 | 73 | 1020.6 |
| 20260506201203 | 59 | 36 | 1.7 | 2.6 | 0.00 | 0.01 | 0.01 | 73 | 1020.8 |
| 20260506200659 | 58 | 90 | 5.2 | 7.0 | 0.00 | 0.01 | 0.01 | 72 | 1020.6 |
| 20260506200156 | 59 | 115 | 1.7 | 1.7 | 0.00 | 0.01 | 0.01 | 72 | 1020.8 |
| 20260506195653 | 58 | 31 | 5.2 | 9.6 | 0.00 | 0.01 | 0.01 | 72 | 1020.9 |
| 20260506195149 | 59 | 320 | 4.3 | 4.3 | 0.00 | 0.01 | 0.01 | 73 | 1020.9 |
| 20260506194647 | 59 | 23 | 2.6 | 7.8 | 0.00 | 0.01 | 0.01 | 73 | 1020.7 |
| 20260506194143 | 58 | 19 | 3.5 | 8.7 | 0.00 | 0.01 | 0.01 | 72 | 1020.5 |
| 20260506193641 | 59 | 63 | 2.6 | 5.2 | 0.00 | 0.01 | 0.01 | 73 | 1020.5 |
| 20260506193138 | 59 | 25 | 5.2 | 6.1 | 0.00 | 0.01 | 0.01 | 73 | 1020.6 |
| 20260506192634 | 59 | 77 | 6.1 | 7.8 | 0.00 | 0.01 | 0.01 | 72 | 1020.8 |
| 20260506192130 | 60 | 125 | 1.7 | 3.5 | 0.00 | 0.01 | 0.01 | 73 | 1020.9 |
| 20260506191627 | 60 | 308 | 3.5 | 3.5 | 0.00 | 0.01 | 0.01 | 73 | 1021.0 |
| 20260506191123 | 59 | 34 | 1.7 | 7.0 | 0.00 | 0.01 | 0.01 | 73 | 1020.8 |
| 20260506190621 | 60 | 8 | 4.3 | 5.2 | 0.00 | 0.01 | 0.01 | 73 | 1020.9 |
| 20260506190118 | 59 | 289 | 0.0 | 7.8 | 0.00 | 0.01 | 0.01 | 73 | 1020.7 |
| 20260506185615 | 59 | 9 | 7.0 | 11.3 | 0.00 | 0.01 | 0.01 | 72 | 1020.8 |
| 20260506185111 | 58 | 81 | 1.7 | 4.3 | 0.00 | 0.01 | 0.01 | 72 | 1020.9 |
| 20260506184609 | 58 | 37 | 5.2 | 6.1 | 0.00 | 0.01 | 0.01 | 72 | 1021.0 |
| 20260506184106 | 58 | 90 | 3.5 | 5.2 | 0.00 | 0.01 | 0.01 | 72 | 1021.0 |
| 20260506183602 | 58 | 63 | 3.5 | 3.5 | 0.00 | 0.01 | 0.01 | 72 | 1021.1 |
| 20260506183058 | 58 | 34 | 3.5 | 7.0 | 0.00 | 0.01 | 0.01 | 72 | 1021.0 |
| 20260506182556 | 58 | 342 | 2.6 | 7.8 | 0.00 | 0.01 | 0.01 | 72 | 1021.4 |
| 20260506182053 | 58 | 21 | 7.8 | 8.7 | 0.00 | 0.01 | 0.01 | 72 | 1021.6 |
| 20260506181551 | 58 | 261 | 0.0 | 4.3 | 0.00 | 0.01 | 0.01 | 72 | 1021.2 |
| 20260506181047 | 57 | 355 | 0.9 | 7.8 | 0.00 | 0.01 | 0.01 | 72 | 1021.2 |
| 20260506180544 | 57 | 16 | 2.6 | 6.1 | 0.00 | 0.01 | 0.01 | 72 | 1021.1 |
| 20260506180040 | 57 | 70 | 4.3 | 6.1 | 0.00 | 0.01 | 0.01 | 72 | 1020.9 |
| 20260506175537 | 57 | 60 | 5.2 | 10.4 | 0.00 | 0.01 | 0.01 | 72 | 1020.6 |
| 20260506175033 | 56 | 86 | 4.3 | 6.1 | 0.00 | 0.01 | 0.01 | 72 | 1020.6 |
| 20260506174532 | 56 | 44 | 6.1 | 11.3 | 0.00 | 0.01 | 0.01 | 72 | 1020.7 |
| 20260506174027 | 56 | 57 | 5.2 | 8.7 | 0.00 | 0.01 | 0.01 | 72 | 1020.8 |
| 20260506173526 | 56 | 12 | 6.1 | 7.8 | 0.00 | 0.01 | 0.01 | 72 | 1021.0 |
| 20260506173022 | 56 | 358 | 3.5 | 5.2 | 0.00 | 0.01 | 0.01 | 72 | 1021.1 |
| 20260506172519 | 56 | 19 | 3.5 | 6.1 | 0.00 | 0.01 | 0.01 | 72 | 1021.3 |
| 20260506172015 | 55 | 28 | 7.8 | 9.6 | 0.00 | 0.01 | 0.01 | 72 | 1021.3 |
| 20260506171513 | 55 | 328 | 7.0 | 9.6 | 0.00 | 0.01 | 0.01 | 72 | 1021.3 |
| 20260506171010 | 56 | 30 | 4.3 | 4.3 | 0.00 | 0.01 | 0.01 | 72 | 1021.3 |
| 20260506170508 | 56 | 356 | 6.1 | 6.1 | 0.00 | 0.01 | 0.01 | 72 | 1021.0 |
| 20260506170000 | 56 | 77 | 0.9 | 1.7 | 0.00 | 0.01 | 0.01 | 72 | 1021.2 |
| 20260506165458 | 56 | 36 | 1.7 | 4.3 | 0.00 | 0.01 | 0.01 | 72 | 1021.3 |
| 20260506164954 | 55 | 63 | 4.3 | 9.6 | 0.00 | 0.01 | 0.01 | 72 | 1021.5 |
| 20260506164450 | 55 | 314 | 4.3 | 7.0 | 0.00 | 0.01 | 0.01 | 72 | 1021.5 |
| 20260506163948 | 55 | 95 | 5.2 | 8.7 | 0.00 | 0.01 | 0.01 | 72 | 1021.4 |
| 20260506163443 | 55 | 59 | 7.8 | 9.6 | 0.00 | 0.01 | 0.01 | 72 | 1021.4 |
| 20260506162938 | 54 | 28 | 7.8 | 10.4 | 0.00 | 0.01 | 0.01 | 72 | 1021.2 |
| 20260506162436 | 53 | 45 | 6.1 | 7.8 | 0.00 | 0.01 | 0.01 | 72 | 1021.8 |
| 20260506161928 | 53 | 63 | 1.7 | 3.5 | 0.00 | 0.01 | 0.01 | 72 | 1021.6 |
| 20260506161426 | 53 | 63 | 1.7 | 3.5 | 0.00 | 0.01 | 0.01 | 72 | 1021.7 |
| 20260506160923 | 53 | 343 | 4.3 | 4.3 | 0.00 | 0.01 | 0.01 | 72 | 1021.3 |
| 20260506160420 | 53 | 16 | 4.3 | 9.6 | 0.00 | 0.01 | 0.01 | 72 | 1021.3 |
| 20260506155917 | 54 | 14 | 1.7 | 9.6 | 0.00 | 0.01 | 0.01 | 72 | 1021.3 |
| 20260506155414 | 53 | 14 | 3.5 | 8.7 | 0.00 | 0.01 | 0.01 | 72 | 1021.2 |
| 20260506153536 | 52 | 22 | 7.8 | 7.8 | 0.00 | 0.01 | 0.01 | 72 | 1021.0 |
| 20260506153034 | 52 | 22 | 6.1 | 6.1 | 0.00 | 0.01 | 0.01 | 72 | 1020.7 |
| 20260506152531 | 52 | 21 | 5.2 | 6.1 | 0.00 | 0.01 | 0.01 | 72 | 1020.6 |
| 20260506152029 | 51 | 354 | 4.3 | 6.1 | 0.00 | 0.01 | 0.01 | 72 | 1020.8 |
| 20260506151526 | 50 | 47 | 2.6 | 5.2 | 0.00 | 0.01 | 0.01 | 72 | 1021.1 |
| 20260506151023 | 50 | 47 | 2.6 | 6.1 | 0.00 | 0.01 | 0.01 | 72 | 1020.9 |
| 20260506150520 | 51 | 346 | 2.6 | 5.2 | 0.00 | 0.01 | 0.01 | 72 | 1021.1 |
| 20260506150017 | 50 | 29 | 4.3 | 6.1 | 0.00 | 0.01 | 0.01 | 72 | 1020.8 |
| 20260506145513 | 50 | 22 | 1.7 | 2.6 | 0.00 | 0.01 | 0.01 | 72 | 1021.0 |
| 20260506145011 | 48 | 71 | 2.6 | 5.2 | 0.00 | 0.01 | 0.01 | 71 | 1020.8 |
| 20260506144507 | 48 | 71 | 2.6 | 5.2 | 0.00 | 0.01 | 0.01 | 71 | 1021.0 |
| 20260506144005 | 48 | 71 | 2.6 | 5.2 | 0.00 | 0.01 | 0.01 | 71 | 1020.8 |
| 20260506143502 | 48 | 71 | 2.6 | 5.2 | 0.00 | 0.01 | 0.01 | 71 | 1020.8 |
| 20260506143001 | 48 | 71 | 2.6 | 5.2 | 0.00 | 0.01 | 0.01 | 71 | 1021.1 |
| 20260506142458 | 48 | 71 | 2.6 | 5.2 | 0.00 | 0.01 | 0.01 | 71 | 1020.7 |
| 20260506141956 | 48 | 71 | 2.6 | 5.2 | 0.00 | 0.01 | 0.01 | 71 | 1020.8 |
| 20260506141453 | 48 | 71 | 2.6 | 5.2 | 0.00 | 0.01 | 0.01 | 71 | 1021.0 |
| 20260506140952 | 48 | 71 | 2.6 | 5.2 | 0.00 | 0.01 | 0.01 | 71 | 1020.8 |
| 20260506140448 | 48 | 40 | 2.6 | 6.1 | 0.00 | 0.01 | 0.01 | 71 | 1020.7 |
| 20260506135945 | 0 | 0.0 | 0.0 | 0.00 | 0.01 | 0.01 | 1020.8 |